Orbital Elements at Epoch 2459200.5 (2020-Dec-17.0) TDB
Reference: JPL 32 (heliocentric ecliptic J2000)
Element | Value | Uncertainty (1-sigma) | Units |
e | .1207787502849606 | 2.9516e-08 | |
a | 2.173551939820907 | 7.2925e-09 | au |
q | 1.911033052849886 | 6.3727e-08 | au |
i | 3.009483605439975 | 3.3486e-06 | deg |
node | 176.2794473720174 | 6.7624e-05 | deg |
peri | 61.08936350806878 | 6.9895e-05 | deg |
M | 201.9853084044655 | 2.0779e-05 | deg |
tp | 2459714.245969798536 (2022-May-14.74596980) | 6.8986e-05 | TDB |
period | 1170.451603328634 3.20 | 5.8905e-06 1.613e-08 | d yr |
n | .3075735886697068 | 1.5479e-09 | deg/d |
Q | 2.436070826791928 | 8.1733e-09 | au |
|
| | Orbit Determination Parameters
Additional Information
|